TIANQI-15 (49027 NORAD) Tracking and Keplerian Element Data

This shows tracking and keplerian element data for the satellite.

Feedback or suggestion? Click here.




ElementValue
Catalog49027
NameTIANQI-15
Epoch Orbit1033
Epoch Day269.14571626
Epoch Year2021
RAAN223.341
Inclination35.0058
Eccentricity0.0007856
Argument of Perigee167.8491
Mean Anonmoly192.2409
Mean Motion14.91430983
Decay Rate2.82E-06
L11 49027U 21065B 21269.14571626 .00000282 00000-0 30365-4 0 9991
L22 49027 35.0058 223.3410 0007856 167.8491 192.2409 14.91430983 10338

Live tracking and technical data element details for TIANQI-15 (NORAD 49027). TIANQI-15 can be tracked NOW for your location showing map with azimuth and elevation plus other details from your city location.

Track the satellite on the map from your city or location and see movement details for azimuth, elevation, latitude, longitude, range, height, and movement on the map or in text.







IsCatalogInMostPopularTable: catalog: 49027, numindb: 18
Update: records affected: 1



GetName: 49027 TIANQI-15

Hit Count: updated at: Sun, 26 Sep 2021 16:34:43 GMT